Weather History for Redmond, OR

Change the Weather History Date:

Saturday, February 23, 2013

  Actual Average Record
Temperature  
Mean Temperature 32 °F 36 °F  
Max Temperature 40 °F 49 °F 73 °F (1995)
Min Temperature 23 °F 24 °F 11 °F (1964)
Degree Days  
Heating Degree Days 33 29  
Month to date heating degree days 685 692  
Since 1 July heating degree days 4330 4532  
Cooling Degree Days 0 0  
Month to date cooling degree days 0 0  
Year to date cooling degree days 0 0  
Moisture  
Dew Point 20 °F    
Average Humidity 65    
Maximum Humidity 85    
Minimum Humidity 44    
Precipitation  
Precipitation 0.00 in 0.02 in 0.11 in (1993)
Month to date precipitation 0.01 0.54  
Year to date precipitation 0.42 1.51  
Sea Level Pressure  
Sea Level Pressure 30.20 in    
Wind  
Wind Speed 11 mph (West)    
Max Wind Speed 24 mph    
Max Gust Speed 32 mph    
Visibility 10 miles    
Events      
T = Trace of Precipitation, MM = Missing Value Source: NWS Daily Summary

Daily Weather History Graph

Daily Weather History Graph

Search for Another Location

Airport:

Trip Planner

Search our weather history database for the weather conditions in past years. The results will help you decide how hot, cold, wet, or windy it might be!

Date:

Astronomy

Feb. 23, 2013 Rise Set
Actual Time 6:51 AM PST 5:45 PM PST
Civil Twilight 6:21 AM PST 6:14 PM PST
Nautical Twilight 5:48 AM PST 6:48 PM PST
Astronomical Twilight 5:14 AM PST 7:21 PM PST
Moon 3:58 PM PST (2/23) 5:19 AM PST (2/23)
Length of Visible Light 11h 52m
Length of Day
10h 54m
Waxing Gibbous, 96% of the Moon is Illuminated
Feb 23
Waxing Gibbous
Feb 25
Full
Mar 4
Last Quarter
Mar 11
New
Mar 19
First Quarter

Hourly Weather History & Observations

Time (PST) Temp. Windchill Dew Point Humidity Pressure Visibility Wind Dir Wind Speed Gust Speed Precip Events Conditions
12:56 AM 28.0 °F 20.0 °F 23.0 °F 81% 30.01 in 10.0 mi West 8.1 mph - N/A   Partly Cloudy
1:56 AM 28.9 °F 18.6 °F 19.9 °F 69% 30.02 in 10.0 mi West 12.7 mph - N/A   Clear
2:56 AM 28.9 °F 17.7 °F 19.9 °F 69% 30.04 in 10.0 mi West 15.0 mph 20.7 mph N/A   Clear
3:56 AM 26.1 °F 18.4 °F 19.0 °F 75% 30.06 in 10.0 mi WNW 6.9 mph - N/A   Clear
4:56 AM 27.0 °F 20.5 °F 19.0 °F 72% 30.08 in 10.0 mi West 5.8 mph - N/A   Clear
5:56 AM 26.1 °F 18.4 °F 19.0 °F 75% 30.11 in 10.0 mi West 6.9 mph - N/A   Partly Cloudy
6:56 AM 24.1 °F - 17.1 °F 75% 30.13 in 10.0 mi Calm Calm - N/A   Clear
7:56 AM 28.0 °F 22.8 °F 19.0 °F 69% 30.15 in 10.0 mi SSE 4.6 mph - N/A   Partly Cloudy
8:56 AM 35.1 °F 28.6 °F 21.0 °F 57% 30.18 in 10.0 mi West 8.1 mph - N/A   Scattered Clouds
9:56 AM 37.0 °F 28.5 °F 21.9 °F 54% 30.19 in 10.0 mi West 13.8 mph 23.0 mph N/A   Partly Cloudy
10:56 AM 39.9 °F 30.2 °F 21.9 °F 49% 30.20 in 10.0 mi West 20.7 mph 26.5 mph N/A   Overcast
11:56 AM 37.9 °F 28.5 °F 19.0 °F 47% 30.21 in 10.0 mi WNW 17.3 mph 27.6 mph N/A   Mostly Cloudy
12:56 PM 37.9 °F 28.9 °F 21.0 °F 51% 30.22 in 10.0 mi WNW 16.1 mph 21.9 mph N/A   Partly Cloudy
1:56 PM 39.0 °F 28.8 °F 19.0 °F 45% 30.22 in 10.0 mi WNW 21.9 mph 28.8 mph N/A   Partly Cloudy
2:56 PM 37.0 °F 27.0 °F 23.0 °F 57% 30.24 in 10.0 mi West 18.4 mph 26.5 mph N/A   Scattered Clouds
3:56 PM 37.0 °F 28.1 °F 19.9 °F 50% 30.26 in 10.0 mi WNW 15.0 mph 21.9 mph N/A   Clear
4:56 PM 35.1 °F 25.9 °F 19.9 °F 54% 30.29 in 10.0 mi West 13.8 mph 21.9 mph N/A   Clear
5:56 PM 33.1 °F 23.4 °F 19.0 °F 56% 30.30 in 10.0 mi West 13.8 mph - N/A   Clear
6:56 PM 32.0 °F 22.1 °F 19.9 °F 61% 30.33 in 10.0 mi West 13.8 mph 23.0 mph N/A   Clear
8:56 PM 30.9 °F 21.7 °F 21.0 °F 67% 30.34 in 10.0 mi WNW 11.5 mph - N/A   Clear
9:56 PM 26.1 °F - 19.0 °F 75% 30.37 in 10.0 mi Calm Calm - N/A   Clear
10:56 PM 27.0 °F 23.0 °F 19.9 °F 75% 30.36 in 10.0 mi WNW 3.5 mph - N/A   Clear
11:56 PM 24.1 °F - 19.0 °F 81% 30.37 in 10.0 mi Calm Calm - N/A   Scattered Clouds